Tracking 31027 objects as of 19-Jul-2025
HD Live streaming from Space Station
objects crossing your sky now

STARLINK-2686

Track STARLINK-2686 now!
10-day predictions
STARLINK-2686 is classified as:


NORAD ID: 48464
Int'l Code: 2021-040AN
Perigee: 553.4 km
Apogee: 555.3 km
Inclination: 53.1 °
Period: 95.6 minutes
Semi major axis: 6925 km
RCS: Unknown
Launch date: May 9, 2021
Source: United States (US)
Launch site: AIR FORCE EASTERN TEST RANGE (AFETR)
Your satellite tracking list
THORAD DELTA 1 DEB
Track 1 satellite(s)




NASA's NSSDC Master Catalog

Two Line Element Set (TLE):
1 48464U 21040AN  25199.29901818  .00000761  00000-0  69994-4 0  9992
2 48464  53.0544 163.8373 0001356  85.9665 274.1478 15.06397965231161
Source of the keplerian elements: AFSPC